{"data":{"norad_id":63728,"epoch":"2026-09-21T08:23:30.676704Z","epoch_age_seconds":131052,"freshness":"FRESH","line1":"1 63728U 25088E   26264.34966061  .00002271  00000+0  32671-3 0  9997","line2":"2 63728  51.9018 290.3939 0000596  62.7704 297.3319 14.79946051 76893","mean_motion":14.79946051,"eccentricity":5.96e-5,"inclination_deg":51.9018,"raan_deg":290.3939,"arg_perigee_deg":62.7704,"mean_anomaly_deg":297.3319,"bstar":0.00032671,"rev_number":7689,"period_min":97.300844110297,"perigee_km":629.07677587153,"apogee_km":629.91208553807,"semimajor_km":7007.6314307048,"source":"CELESTRAK","updated_at":"2026-09-22T09:00:29.316044Z"}}